Regional Weather Roundup
Issued by NWS

Home | Current Version | Previous Version | Graphics & Text | Print | Product List | Glossary On
Versions: 1 2 3 4 5 6 7 8 9 10 11 12 13 14 15 16 17 18 19 20 21 22 23 24 25 26 27 28 29 30 31 32 33 34 35 36 37 38 39 40 41 42 43 44 45 46 47 48 49 50
812
ASUS45 KBOU 230710
RWRCO

WEATHER ROUNDUP FOR COLORADO
NATIONAL WEATHER SERVICE DENVER/BOULDER CO
100 AM MDT MON APR 23 2018

NOTE: "FAIR" INDICATES FEW OR NO CLOUDS BELOW 12000 FEET WITH NO
SIGNIFICANT WEATHER AND/OR OBSTRUCTIONS TO VISIBILITY.

COZ001>005-013-030-031-230800-
...NORTHWEST COLORADO...

CITY           SKY/WX    TMP DP  RH WIND       PRES   REMARKS
CRAIG          FAIR      39  33  79 CALM      30.09R
HAYDEN         FAIR      45  31  58 E10       30.11S
MEEKER         FAIR      42  32  67 E7        30.10S
RANGELY        FAIR      49  37  64 E5        30.03S
RABBIT EARS PA FAIR      36  27  69 CALM      30.28S
STEAMBOAT SPGS FAIR      41  29  64 CALM      30.12S
WALDEN         FAIR      30  23  74 SE9       30.19S WCI  22
$$

COZ006>008-011-230800-
...WEST CENTRAL VALLEYS...

CITY           SKY/WX    TMP DP  RH WIND       PRES   REMARKS
GRAND JUNCTION FAIR      51  28  41 E5        30.02R
MONTROSE       FAIR      49  32  52 SE12      30.10R
EAGLE          FAIR      41  33  73 E5        30.16S
RIFLE          MOCLDY    49  37  63 NE5       30.08R
DELTA          FAIR      53  32  45 E7        30.07S
NUCLA          FAIR      46  28  49 E10       30.12S
$$

COZ017>023-064>068-230800-
...SOUTHWEST COLORADO...

CITY           SKY/WX    TMP DP  RH WIND       PRES   REMARKS
DURANGO        FAIR      43  25  49 CALM      30.13R
CORTEZ         FAIR      40  21  46 CALM      30.11R
PAGOSA SPRINGS FAIR      40  17  39 CALM      30.19S
TELLURIDE      FAIR      41  28  60 SE8       30.27S
WOLF CREEK PAS FAIR      34  12  40 SW5       30.42S WCI  30
$$

COZ009-010-012-014-032>034-037-058>063-230800-
...CENTRAL COLORADO...

CITY           SKY/WX    TMP DP  RH WIND       PRES   REMARKS
ASPEN          FAIR      43  29  57 VRB5      30.17S
BUENA VISTA    FAIR      41  35  79 W5        30.24S
COPPER MTN     NOT AVBL
BERTHOUD PASS  FAIR      27  16  63 W15       30.37S WCI  15
COTTONWOOD PAS FAIR      41  36  81 W5        30.30S
GUNNISON       FAIR      41  30  65 N8        30.21R
GRANBY         FAIR      33  28  83 NE7       30.22R WCI  27
KREMMLING      FAIR      41  32  70 CALM      30.19R
LEADVILLE      CLOUDY    32  30  92 E3        30.29R
MONARCH PASS   MOCLDY    34  25  69 SW3       30.46F
SALIDA         MOCLDY    46  36  69 SE6       30.30S
SUNLIGHT       CLOUDY    34  23  64 S5        30.33S WCI  30
WILKERSON PASS CLOUDY    32  30  93 W7        30.37S WCI  26
$$

COZ069>075-230800-
...SAN LUIS VALLEY/SANGRE DE CRISTO MOUNTAINS...

CITY           SKY/WX    TMP DP  RH WIND       PRES   REMARKS
ALAMOSA        FAIR      41  28  60 SE3       30.17R
DEL NORTE      FAIR      41  24  51 W13       30.21S
LA VETA PASS   FAIR      36  28  75 N8        30.40F
SAGUACHE       NOT AVBL
$$

COZ035-036-038>040-230800-
...NORTHERN COLORADO FRONT RANGE...

CITY           SKY/WX    TMP DP  RH WIND       PRES   REMARKS
DENVER INTL AP FAIR      42  36  79 SE5       30.10F
AURORA         NOT AVBL
FRONT RANGE AP FAIR      46  40  77 S10G21    30.12S
ERIE MUNI ARPT FAIR      41  37  85 SW5       30.16S
BOULDER MUN AP FAIR      46  36  66 CALM      30.10F
CENTENNIAL     FAIR      47  38  71 S7        30.12F
BROOMFIELD     FAIR      50  32  50 NW7       30.11F
FORT COLLINS   FAIR      40  36  86 N7        30.12S
LONGMONT       FAIR      44  36  74 W6        30.12S
$$

COZ041-046-047-076>085-087-088-230800-
...PIKES PEAK/PALMER DIVIDE AND SOUTHERN FOOTHILLS...

CITY           SKY/WX    TMP DP  RH WIND       PRES   REMARKS
COLO. SPRINGS  MOCLDY    42  35  76 S7        30.21F
A. F. ACADEMY  NOT AVBL
SCHRIEVER AFB  NOT AVBL
CHEYENNE MTN   MOCLDY    39  34  82 S3        30.16F
ELLICOTT         N/A    N/A N/A N/A W6        30.19S
FALCON         FAIR      37  34  90 SW5       30.22F
FORT CARSON    CLOUDY    42  36  80 SE7       30.19F
LIMON          FAIR      37  34  89 S7        30.18F
MONUMENT HILL  FAIR      37  34  87 SW13      30.20S
CANON CITY     FAIR      45  37  76 CALM      30.19F
WALSENBURG     NOT AVBL
TRINIDAD       FAIR      40  30  67 CALM      30.16F
$$

COZ042>045-048>051-090-091-230800-
...NORTHEAST COLORADO...

CITY           SKY/WX    TMP DP  RH WIND       PRES   REMARKS
GREELEY ARPT   FAIR      41  38  89 NE6       30.12S
AKRON          FAIR      38  35  89 S10       30.15F
BURLINGTON     FAIR      37  34  89 S10       30.18F
WRAY           FAIR      41  34  75 CALM      30.18S
YUMA           FAIR      32  32 100 S6        30.16F WCI  26
STERLING       NOT AVBL
HOLYOKE        FAIR      37  34  87 S5        30.18S
FORT MORGAN    FAIR      39  34  84 E6        30.13F
$$

COZ086-089-092>099-230800-
...SOUTHEAST COLORADO...

CITY           SKY/WX    TMP DP  RH WIND       PRES   REMARKS
PUEBLO         FAIR      45  35  68 NE8       30.18S
LA JUNTA       FAIR      42  35  76 E9        30.16F
LAMAR          FAIR      38  33  82 CALM      30.16F
SPRINGFIELD      N/A     35  33  92 SW7       30.19R WCI  29
$$




USA.gov is the U.S. government's official web portal to all federal, state and local government web resources and services.